When you browse on this site, cookies collect data to enhance your experience and personalize the content and advertising you see.
Visit our Privacy Policy to learn more. By continuing to use the site, you agree to this use of cookies and data.
  • In Hungary
  • List of Countries
  • For 7 days
  • Water Temperature
  • Weather Map
  • News
  • Weather Widgets
  • user-avatar
    Login

    Hourly Weather Kubanovka

    Today, 25 August, Sunday

    Time Temperature Precipitation Wind Pressure Humidity
    00:00 +16°C° 0 mm 2 mps 746 mmHg 72%
    01:00 +15°C° 0 mm 2 mps 746 mmHg 74%
    02:00 +15°C° 0 mm 2 mps 746 mmHg 76%
    03:00 +15°C° 0 mm 2 mps 746 mmHg 80%
    04:00 +15°C° 0 mm 2 mps 746 mmHg 84%
    05:00 +14°C° 0 mm 2 mps 746 mmHg 87%
    06:00 +16°C° 0 mm 3 mps 746 mmHg 83%
    07:00 +17°C° 0 mm 3 mps 747 mmHg 78%
    08:00 +19°C° 0 mm 3 mps 747 mmHg 72%
    09:00 +20°C° 0 mm 4 mps 747 mmHg 67%
    10:00 +21°C° 0 mm 4 mps 747 mmHg 61%
    11:00 +22°C° 0 mm 4 mps 747 mmHg 56%
    12:00 +22°C° 0 mm 4 mps 747 mmHg 55%
    13:00 +23°C° 0 mm 4 mps 747 mmHg 53%
    14:00 +23°C° 0 mm 4 mps 747 mmHg 50%
    15:00 +22°C° 0 mm 4 mps 747 mmHg 54%
    16:00 +22°C° 0 mm 3 mps 747 mmHg 57%
    17:00 +21°C° 0 mm 3 mps 747 mmHg 61%
    18:00 +19°C° 0 mm 3 mps 748 mmHg 66%
    19:00 +18°C° 0 mm 3 mps 748 mmHg 72%
    20:00 +16°C° 0 mm 3 mps 748 mmHg 77%
    21:00 +16°C° 0 mm 2 mps 748 mmHg 79%
    22:00 +15°C° 0 mm 2 mps 748 mmHg 80%
    23:00 +15°C° 0 mm 2 mps 749 mmHg 82%

    Tomorrow, 26 August, Monday

    Time Temperature Precipitation Wind Pressure Humidity
    00:00 +14°C° 0 mm 2 mps 749 mmHg 84%
    01:00 +14°C° 0 mm 2 mps 749 mmHg 87%
    02:00 +13°C° 0 mm 2 mps 749 mmHg 89%
    03:00 +13°C° 0 mm 2 mps 749 mmHg 90%
    04:00 +12°C° 0 mm 2 mps 749 mmHg 91%
    05:00 +12°C° 0 mm 2 mps 749 mmHg 93%
    06:00 +14°C° 0 mm 2 mps 750 mmHg 85%
    07:00 +15°C° 0 mm 2 mps 750 mmHg 78%
    08:00 +17°C° 0 mm 2 mps 750 mmHg 70%
    09:00 +18°C° 0 mm 2 mps 750 mmHg 65%
    10:00 +20°C° 0 mm 1 mps 750 mmHg 60%
    11:00 +22°C° 0 mm 1 mps 750 mmHg 54%
    12:00 +22°C° 0 mm 1 mps 749 mmHg 51%
    13:00 +23°C° 0 mm 1 mps 749 mmHg 48%
    14:00 +24°C° 0 mm 1 mps 749 mmHg 45%
    15:00 +23°C° 0 mm 1 mps 749 mmHg 48%
    16:00 +23°C° 0 mm 1 mps 748 mmHg 51%
    17:00 +23°C° 0 mm 1 mps 748 mmHg 53%
    18:00 +21°C° 0 mm 1 mps 748 mmHg 58%
    19:00 +19°C° 0 mm 1 mps 747 mmHg 62%
    20:00 +16°C° 0 mm 1 mps 747 mmHg 67%
    21:00 +16°C° 0 mm 1 mps 747 mmHg 68%
    22:00 +16°C° 0 mm 1 mps 747 mmHg 69%
    23:00 +15°C° 0 mm 1 mps 747 mmHg 70%

    Day after tomorrow, 27 August, Tuesday

    Time Temperature Precipitation Wind Pressure Humidity
    00:00 +15°C° 0 mm 2 mps 746 mmHg 71%
    01:00 +15°C° 0 mm 2 mps 746 mmHg 73%
    02:00 +15°C° 0 mm 2 mps 746 mmHg 74%
    03:00 +14°C° 0 mm 3 mps 746 mmHg 76%
    04:00 +13°C° 0 mm 3 mps 745 mmHg 79%
    05:00 +13°C° 0 mm 3 mps 745 mmHg 81%
    06:00 +16°C° 0 mm 3 mps 745 mmHg 78%
    07:00 +17°C° 0 mm 4 mps 744 mmHg 74%
    08:00 +17°C° 0 mm 5 mps 744 mmHg 71%
    09:00 +20°C° 0.1 mm 5 mps 744 mmHg 69%
    10:00 +21°C° 0.1 mm 6 mps 744 mmHg 67%
    11:00 +22°C° 0.1 mm 6 mps 744 mmHg 64%
    12:00 +23°C° 0.1 mm 6 mps 743 mmHg 62%
    13:00 +23°C° 0.1 mm 6 mps 743 mmHg 60%
    14:00 +23°C° 0.1 mm 6 mps 743 mmHg 58%
    15:00 +22°C° 0.1 mm 6 mps 743 mmHg 61%
    16:00 +22°C° 0.1 mm 5 mps 743 mmHg 64%
    17:00 +21°C° 0.1 mm 5 mps 743 mmHg 67%
    18:00 +19°C° 0 mm 4 mps 743 mmHg 69%
    19:00 +18°C° 0 mm 4 mps 743 mmHg 72%
    20:00 +15°C° 0 mm 4 mps 743 mmHg 74%
    21:00 +15°C° 0 mm 4 mps 744 mmHg 75%
    22:00 +14°C° 0 mm 3 mps 744 mmHg 77%
    23:00 +13°C° 0 mm 3 mps 744 mmHg 78%

    28 August, Wednesday

    Time Temperature Precipitation Wind Pressure Humidity
    00:00 +13°C° 0 mm 3 mps 744 mmHg 81%
    01:00 +12°C° 0 mm 3 mps 744 mmHg 84%
    02:00 +11°C° 0 mm 3 mps 744 mmHg 87%
    03:00 +11°C° 0 mm 3 mps 745 mmHg 87%
    04:00 +10°C° 0 mm 3 mps 745 mmHg 87%
    05:00 +10°C° 0 mm 4 mps 745 mmHg 87%
    06:00 +11°C° 0 mm 4 mps 745 mmHg 81%
    07:00 +12°C° 0 mm 4 mps 746 mmHg 75%
    08:00 +14°C° 0 mm 5 mps 746 mmHg 69%
    09:00 +15°C° 0 mm 5 mps 746 mmHg 64%
    10:00 +15°C° 0 mm 5 mps 746 mmHg 60%
    11:00 +16°C° 0 mm 5 mps 746 mmHg 55%
    12:00 +17°C° 0 mm 5 mps 746 mmHg 52%
    13:00 +17°C° 0 mm 5 mps 746 mmHg 49%
    14:00 +17°C° 0 mm 5 mps 746 mmHg 45%
    15:00 +16°C° 0 mm 5 mps 746 mmHg 47%
    16:00 +16°C° 0 mm 5 mps 746 mmHg 49%
    17:00 +15°C° 0 mm 4 mps 746 mmHg 51%
    18:00 +13°C° 0 mm 4 mps 746 mmHg 55%
    19:00 +12°C° 0 mm 3 mps 747 mmHg 59%
    20:00 +10°C° 0 mm 3 mps 747 mmHg 62%
    21:00 +10°C° 0 mm 3 mps 747 mmHg 63%
    22:00 +9°C° 0 mm 2 mps 747 mmHg 64%
    23:00 +8°C° 0 mm 2 mps 748 mmHg 65%

    29 August, Thursday

    Time Temperature Precipitation Wind Pressure Humidity
    00:00 +8°C° 0 mm 2 mps 748 mmHg 68%
    01:00 +7°C° 0 mm 2 mps 748 mmHg 71%
    02:00 +7°C° 0 mm 2 mps 748 mmHg 74%
    03:00 +7°C° 0 mm 2 mps 748 mmHg 76%
    04:00 +6°C° 0 mm 2 mps 748 mmHg 78%
    05:00 +6°C° 0 mm 2 mps 748 mmHg 80%
    06:00 +8°C° 0 mm 2 mps 748 mmHg 73%
    07:00 +10°C° 0 mm 2 mps 748 mmHg 66%
    08:00 +13°C° 0 mm 2 mps 749 mmHg 59%
    09:00 +13°C° 0 mm 3 mps 749 mmHg 54%
    10:00 +14°C° 0 mm 3 mps 748 mmHg 49%
    11:00 +17°C° 0 mm 3 mps 748 mmHg 44%
    12:00 +17°C° 0 mm 3 mps 748 mmHg 45%
    13:00 +18°C° 0 mm 3 mps 748 mmHg 47%
    14:00 +19°C° 0 mm 3 mps 747 mmHg 49%
    15:00 +18°C° 0 mm 3 mps 747 mmHg 53%
    16:00 +18°C° 0 mm 3 mps 747 mmHg 57%
    17:00 +18°C° 0 mm 3 mps 747 mmHg 61%
    18:00 +16°C° 0 mm 2 mps 747 mmHg 66%
    19:00 +15°C° 0 mm 2 mps 747 mmHg 71%
    20:00 +13°C° 0 mm 1 mps 746 mmHg 76%
    21:00 +13°C° 0 mm 2 mps 746 mmHg 77%
    22:00 +13°C° 0 mm 2 mps 746 mmHg 78%
    23:00 +12°C° 0 mm 3 mps 746 mmHg 79%

    30 August, Friday

    Time Temperature Precipitation Wind Pressure Humidity
    00:00 +13°C° 0 mm 2 mps 746 mmHg 82%
    01:00 +12°C° 0 mm 2 mps 746 mmHg 84%
    02:00 +12°C° 0 mm 2 mps 746 mmHg 87%
    03:00 +12°C° 0 mm 2 mps 746 mmHg 88%
    04:00 +12°C° 0 mm 2 mps 746 mmHg 89%
    05:00 +12°C° 0 mm 2 mps 746 mmHg 90%
    06:00 +13°C° 0 mm 2 mps 746 mmHg 86%
    07:00 +14°C° 0 mm 1 mps 747 mmHg 81%
    08:00 +16°C° 0 mm 1 mps 747 mmHg 77%
    09:00 +17°C° 0 mm 2 mps 747 mmHg 73%
    10:00 +18°C° 0 mm 2 mps 747 mmHg 70%
    11:00 +19°C° 0 mm 2 mps 747 mmHg 66%
    12:00 +19°C° 0.1 mm 2 mps 747 mmHg 67%
    13:00 +18°C° 0.1 mm 2 mps 746 mmHg 68%
    14:00 +19°C° 0.1 mm 1 mps 746 mmHg 69%
    15:00 +19°C° 0 mm 1 mps 746 mmHg 69%
    16:00 +19°C° 0 mm 1 mps 746 mmHg 69%
    17:00 +20°C° 0 mm 1 mps 746 mmHg 69%
    18:00 +18°C° 0 mm 1 mps 746 mmHg 73%
    19:00 +16°C° 0 mm 1 mps 746 mmHg 77%
    20:00 +15°C° 0 mm 1 mps 746 mmHg 81%
    21:00 +15°C° 0 mm 1 mps 746 mmHg 82%
    22:00 +14°C° 0 mm 1 mps 746 mmHg 82%
    23:00 +14°C° 0 mm 1 mps 746 mmHg 82%
    Show more